Location: Alumbaugh
(37.5976°N, 83.9299°W)
Time: 17:11:01
(UTC+00:00)

ISS - Visible Passes

Search period start: 08 December 2022 00:00
Search period end: 18 December 2022 00:00
Orbit: 414 x 420 km, 51.6° (Epoch: 08 December)

Date Brightness Start Highest point End Pass type
(mag) Time Alt. Az. Time Alt. Az. Time Alt. Az.
08 Dec -0.5 23:55:49 10° W 23:57:22 13° SW 23:58:55 10° SSW visible
09 Dec -1.0 23:06:38 10° WNW 23:09:20 23° SW 23:12:01 10° S visible
15 Dec -0.5 11:47:34 10° SSE 11:49:35 15° SE 11:51:37 10° E visible
17 Dec -2.6 11:46:09 10° SSW 11:49:23 47° SE 11:52:38 10° ENE visible
